This is the latest recevied weather packets stored in our database for station/object WX2NJ. If no packets are shown the sender has not sent any weather packets the latest 10 day(s).
| Time | Temp. | Humidity | Pressure | Rain* | Wind** | Luminosity | Snow |
|---|---|---|---|---|---|---|---|
| 1777995313 | 23.89° C | 56% | 1014.9 hPa | 0 mm | - | 230 W/m² | - |
| 1777995009 | 23.89° C | 55% | 1015 hPa | 0 mm | - | 225 W/m² | - |
| 1777994707 | 23.89° C | 55% | 1015.2 hPa | 0 mm | - | 221 W/m² | - |
| 1777994402 | 24.44° C | 53% | 1014.9 hPa | 0 mm | - | 218 W/m² | - |
| 1777994097 | 25° C | 51% | 1015.1 hPa | 0 mm | - | 213 W/m² | - |
| 1777993795 | 27.22° C | 41% | 1015.1 hPa | 0 mm | - | 209 W/m² | - |
| 1777993491 | 26.67° C | 37% | 1015.1 hPa | 0 mm | - | 206 W/m² | - |
| 1777993191 | 26.67° C | 38% | 1015.3 hPa | 0 mm | - | 202 W/m² | - |
| 1777992889 | 26.67° C | 38% | 1015.2 hPa | 0 mm | - | 202 W/m² | - |
| 1777992588 | 26.67° C | 38% | 1015.4 hPa | 0 mm | - | 215 W/m² | - |
| 1777992285 | 26.67° C | 41% | 1015.4 hPa | 0 mm | - | 214 W/m² | - |
| 1777991982 | 26.67° C | 39% | 1015.4 hPa | 0 mm | - | 224 W/m² | - |
| 1777991680 | 26.11° C | 41% | 1015.5 hPa | 0 mm | - | 225 W/m² | - |
| 1777991377 | 26.11° C | 41% | 1015.4 hPa | 0 mm | - | 84 W/m² | - |
| 1777991074 | 26.67° C | 40% | 1015.3 hPa | 0 mm | - | 203 W/m² | - |
| 1777990771 | 25.56° C | 42% | 1015.5 hPa | 0 mm | - | 180 W/m² | - |
| 1777990468 | 25.56° C | 42% | 1015.3 hPa | 0 mm | - | 177 W/m² | - |
| 1777989862 | 25° C | 44% | 1015.5 hPa | 0 mm | - | 171 W/m² | - |
| 1777989558 | 25° C | 44% | 1015.3 hPa | 0 mm | - | 170 W/m² | - |
| 1777989255 | 25° C | 45% | 1015.5 hPa | 0 mm | - | 170 W/m² | - |
| 1777988951 | 24.44° C | 45% | 1015.3 hPa | 0 mm | - | 219 W/m² | - |
| 1777988648 | 24.44° C | 46% | 1015.4 hPa | 0 mm | - | 177 W/m² | - |
| 1777988344 | 23.89° C | 48% | 1015.4 hPa | 0 mm | - | 158 W/m² | - |
| 1777988042 | 23.89° C | 50% | 1015.6 hPa | 0 mm | - | 157 W/m² | - |
| 1777987737 | 23.89° C | 48% | 1015.4 hPa | 0 mm | - | 155 W/m² | - |
* Rain latest hour (hover to see other rain measurements)
** Current wind speed in m/s (hover to see current wind gust speed)